Flag for Belgium Weather past 2 weeks in Leuven, Belgium

Now
61 °F

Fog.


Feels Like: 61 °F
Forecast: 57 / 74 °F
Wind: 6 mph from Northwest

Location: Brussels National Airport

Current Time: Jul 29, 2014 at 6:42:31 AM

Latest Report: Jul 29, 2014 at 5:50 AM


Visibility: 3 mi

Pressure: 29.89 "Hg

Humidity: 100%

Dew point: 61 °F

Location of LeuvenLocation

Historic Weather in Leuven — Graph

°F

Leuven temperature yesterday

Maximum temperature yesterday: 70 °F (at 6:50 PM)
Minimum temperature yesterday: 59 °F (at 9:50 AM)
Average temperature yesterday: 65 °F

Past Weeks' High & Low Weather Summary

 TemperatureHumidityPressure
High90 °F (Jul 18, 3:50 PM)100% (Jul 16, 3:50 AM)30.18 "Hg (Jul 16, 3:50 AM)
Low54 °F (Jul 15, 2:20 AM)33% (Jul 19, 2:20 PM)29.77 "Hg (Jul 19, 8:20 PM)
Average69 °F73%29.99 "Hg
* Reported Jul 14 5:20 AM — Jul 29 5:20 AM, Leuven, Weather by CustomWeather, © 2014

Note: Actual official high and low records may vary slightly from our data, if they occured in-between our weather recording intervals... More about our weather records

Advertising

Leuven weather history for previous 24 hours

 ConditionsComfort  
Time TempWeatherWind HumidityBarometerVisibility
5:20 AM
Jul 29
63 °FPassing clouds.5 mph83%29.89 "Hg4 mi
4:50 AM64 °FPassing clouds.6 mph88%29.89 "Hg4 mi
4:20 AM61 °FPassing clouds.5 mph100%29.89 "Hg4 mi
3:50 AM63 °FPartly cloudy.5 mph83%29.89 "Hg4 mi
3:20 AM63 °FPartly cloudy.6 mph83%29.89 "Hg4 mi
2:50 AM63 °FPassing clouds.5 mph100%29.89 "HgN/A
2:20 AM63 °FPassing clouds.5 mph94%29.89 "HgN/A
1:50 AM63 °FPassing clouds.6 mph83%29.92 "HgN/A
1:20 AM63 °FPassing clouds.5 mph88%29.89 "HgN/A
12:50 AM63 °FPassing clouds.6 mph88%29.89 "HgN/A
12:20 AM63 °FPassing clouds.8 mph83%29.89 "HgN/A
11:50 PM
Jul 28
63 °FPassing clouds.6 mph94%29.92 "HgN/A
11:20 PM63 °FPassing clouds.6 mph88%29.92 "HgN/A
10:50 PM64 °FPassing clouds.6 mph78%29.92 "HgN/A
10:20 PM64 °FPassing clouds.5 mph78%29.89 "HgN/A
9:50 PM64 °FPassing clouds.5 mph78%29.89 "HgN/A
9:20 PM66 °FPassing clouds.3 mph78%29.89 "HgN/A
8:50 PM66 °FPassing clouds.2 mph78%29.89 "HgN/A
8:20 PM68 °FPassing clouds.1 mph73%29.89 "HgN/A
7:50 PM70 °FPassing clouds.5 mph69%29.89 "HgN/A
7:20 PM68 °FScattered clouds.3 mph73%29.89 "HgN/A
6:50 PM70 °FScattered clouds.1 mph69%29.89 "HgN/A
6:20 PM68 °FBroken clouds.5 mph73%29.89 "HgN/A
5:50 PM68 °FBroken clouds.6 mph73%29.89 "HgN/A
5:20 PM68 °FBroken clouds.6 mph78%29.86 "HgN/A
4:50 PM68 °FBroken clouds.6 mph73%29.86 "HgN/A
4:20 PM66 °FPartly sunny.5 mph83%29.86 "HgN/A
3:50 PM68 °FPartly sunny.No wind73%29.89 "HgN/A
3:20 PM68 °FPartly sunny.1 mph78%29.89 "HgN/A
2:50 PM66 °FPartly sunny.3 mph78%29.89 "HgN/A
2:20 PM66 °FBroken clouds.2 mph83%29.89 "HgN/A
1:50 PM66 °FBroken clouds.3 mph83%29.89 "HgN/A
1:20 PM64 °FScattered clouds.3 mph83%29.89 "HgN/A
12:50 PM64 °FLight rain. Partly sunny.5 mph83%29.89 "HgN/A
12:20 PM63 °FPartly sunny.5 mph88%29.89 "HgN/A
11:50 AM63 °FPartly sunny.7 mph83%29.89 "HgN/A
11:20 AM61 °FLight rain. Broken clouds.7 mph88%29.89 "HgN/A
10:50 AM59 °FRain. Broken clouds.7 mph88%29.89 "HgN/A
10:20 AM59 °FLight rain. Partly sunny.9 mph88%29.89 "HgN/A
9:50 AM59 °FLots of rain. Fog.13 mph100%29.89 "Hg1 mi
9:20 AM64 °FSprinkles. Fog.2 mph94%29.89 "Hg2 mi
8:50 AM64 °FFog.2 mph94%29.89 "Hg2 mi
8:20 AM64 °FFog.2 mph88%29.89 "Hg2 mi
7:50 AM64 °FLight rain. Fog.3 mph94%29.89 "Hg2 mi
7:20 AM64 °FThunderstorms. Fog.2 mph88%29.89 "Hg2 mi
6:50 AM64 °FSprinkles. Fog.2 mph88%29.89 "Hg2 mi
6:20 AM64 °FFog.3 mph88%29.89 "Hg3 mi
Weather by CustomWeather, © 2014

See weather overviewHow to use our weather pages